Rush City, MN

6:16 PM CDT on October 18, 2017 (GMT -0500)
Rush City Regional

Weather History for KROS - February, 2014

Change the Weather History Date:

Saturday, February 15, 2014

  Actual Average (KCBG) Record (KCBG)
Temperature  
Mean Temperature 5 °F -  
Max Temperature 17 °F 23 °F 87 °F (1999)
Min Temperature -7 °F 5 °F -20 °F (2001)
Degree Days  
Heating Degree Days 60    
Moisture  
Dew Point 3 °F    
Average Humidity 81    
Maximum Humidity 92    
Minimum Humidity 67    
Precipitation  
Precipitation 0.00 in - - ()
Sea Level Pressure  
Sea Level Pressure 29.91 in    
Wind  
Wind Speed 2 mph (SE)    
Max Wind Speed 12 mph    
Max Gust Speed 16 mph    
Visibility 10 miles    
Events Snow    
Averages and records for this station are not official NWS values.
T = Trace of Precipitation, MM = Missing Value Source: NWS Daily Summary

Daily Weather History Graph

Daily Weather History Graph

Search for Another Location

Airport or City:

Trip Planner

Search our weather history database for the weather conditions in past years. The results will help you decide how hot, cold, wet, or windy it might be!

Date:

Astronomy

Feb. 15, 2014 Rise Set
Actual Time 7:13 AM CST 5:38 PM CST
Civil Twilight 6:43 AM CST 6:09 PM CST
Nautical Twilight 6:08 AM CST 6:44 PM CST
Astronomical Twilight 5:34 AM CST 7:18 PM CST
Moon 6:44 PM CST (2/15) 7:08 AM CST (2/15)
Length of Visible Light 11h 25m
Length of Day
10h 24m
Waxing Gibbous, 99% of the Moon is Illuminated
Feb 15
Waxing Gibbous
Feb 22
Last Quarter
Mar 1
New
Mar 8
First Quarter
Mar 16
Full

Hourly Weather History & Observations

Time (CST) Temp. Windchill Dew Point Humidity Pressure Visibility Wind Dir Wind Speed Gust Speed Precip Events Conditions
12:14 AM -0.9 °F - -5.1 °F 83% 29.99 in 10.0 mi Calm Calm - N/A   Scattered Clouds
12:35 AM -0.9 °F - -4.5 °F 85% 29.98 in 10.0 mi Calm Calm - N/A   Mostly Cloudy
12:55 AM -0.4 °F - -4.7 °F 82% 29.98 in 10.0 mi Calm Calm - N/A   Mostly Cloudy
1:14 AM -3.8 °F - -8.1 °F 82% 29.98 in 10.0 mi Calm Calm - N/A   Mostly Cloudy
1:28 AM -3.5 °F - -7.1 °F 85% 29.98 in 10.0 mi Calm Calm - N/A   Mostly Cloudy
1:45 AM -5.8 °F - -9.4 °F 84% 29.98 in 10.0 mi Calm Calm - N/A   Mostly Cloudy
2:05 AM -7.6 °F - -11.2 °F 84% 29.97 in 10.0 mi Calm Calm - N/A   Mostly Cloudy
2:25 AM -7.6 °F - -11.2 °F 84% 29.96 in 10.0 mi Calm Calm - N/A   Mostly Cloudy
2:45 AM -5.8 °F - -11.2 °F 77% 29.95 in 10.0 mi Calm Calm - N/A   Scattered Clouds
3:05 AM -5.8 °F - -9.4 °F 84% 29.95 in 10.0 mi Calm Calm - N/A   Scattered Clouds
3:25 AM -7.6 °F - -11.2 °F 84% 29.95 in 10.0 mi Calm Calm - N/A   Mostly Cloudy
3:45 AM -4.0 °F -12.4 °F -7.6 °F 85% 29.95 in 10.0 mi SSE 3.5 mph - N/A   Mostly Cloudy
4:05 AM -4.0 °F -14.6 °F -7.6 °F 85% 29.94 in 10.0 mi SSE 4.6 mph - N/A   Mostly Cloudy
4:25 AM -4.0 °F -14.6 °F -7.6 °F 85% 29.94 in 10.0 mi SSE 4.6 mph - N/A   Scattered Clouds
4:45 AM -4.0 °F -14.6 °F -7.6 °F 85% 29.92 in 10.0 mi SSE 4.6 mph - N/A   Scattered Clouds
5:05 AM -4.0 °F - -7.6 °F 85% 29.91 in 10.0 mi Calm Calm - N/A   Scattered Clouds
5:25 AM -4.0 °F - -7.6 °F 85% 29.92 in 10.0 mi Calm Calm - N/A   Scattered Clouds
5:45 AM -4.0 °F -12.4 °F -7.6 °F 85% 29.91 in 10.0 mi SSE 3.5 mph - N/A   Scattered Clouds
6:05 AM -4.0 °F -12.4 °F -7.6 °F 85% 29.91 in 10.0 mi ESE 3.5 mph - N/A   Scattered Clouds
6:25 AM -4.0 °F -12.4 °F -7.6 °F 85% 29.90 in 10.0 mi SE 3.5 mph - N/A   Scattered Clouds
6:45 AM -4.0 °F -16.3 °F -7.6 °F 85% 29.89 in 10.0 mi SE 5.8 mph - N/A   Scattered Clouds
7:05 AM -4.0 °F - -7.6 °F 85% 29.89 in 10.0 mi Calm Calm - N/A   Scattered Clouds
7:25 AM -4.0 °F -12.4 °F -7.6 °F 85% 29.88 in 10.0 mi ESE 3.5 mph - N/A   Scattered Clouds
7:45 AM -4.0 °F - -7.6 °F 85% 29.89 in 10.0 mi Calm Calm - N/A   Scattered Clouds
8:05 AM -4.0 °F - -7.6 °F 85% 29.89 in 10.0 mi Calm Calm - N/A   Overcast
8:25 AM -4.0 °F - -5.8 °F 92% 29.88 in 10.0 mi Calm Calm - N/A   Mostly Cloudy
8:45 AM -0.4 °F -8.3 °F -4.0 °F 85% 29.88 in 10.0 mi SE 3.5 mph - N/A   Scattered Clouds
9:05 AM 1.4 °F -9.9 °F -2.2 °F 85% 29.87 in 10.0 mi SSE 5.8 mph - N/A   Scattered Clouds
9:25 AM 3.2 °F -9.1 °F -0.4 °F 85% 29.87 in 10.0 mi South 6.9 mph - N/A   Mostly Cloudy
9:45 AM 6.8 °F -6.9 °F 3.2 °F 85% 29.86 in 10.0 mi SSE 9.2 mph - N/A   Scattered Clouds
10:05 AM 8.6 °F -6.3 °F 1.4 °F 73% 29.85 in 10.0 mi SSE 11.5 mph - N/A   Mostly Cloudy
10:25 AM 10.4 °F -2.4 °F 1.4 °F 67% 29.84 in 10.0 mi SSE 9.2 mph - N/A   Overcast
10:45 AM 10.4 °F -4.1 °F 1.4 °F 67% 29.85 in 10.0 mi South 11.5 mph 16.1 mph N/A   Overcast
11:05 AM 12.2 °F -0.2 °F 3.2 °F 67% 29.83 in 5.0 mi SSE 9.2 mph - N/A   Overcast
11:25 AM 12.2 °F -1.8 °F 5.0 °F 73% 29.82 in 10.0 mi SSE 11.5 mph - N/A   Overcast
11:45 AM 14.0 °F 2.9 °F 5.0 °F 67% 29.83 in 10.0 mi SSE 8.1 mph - N/A   Overcast
12:05 PM 14.0 °F 2.0 °F 5.0 °F 67% 29.82 in 7.0 mi SSE 9.2 mph - N/A   Overcast
12:25 PM 14.0 °F 3.9 °F 6.8 °F 73% 29.81 in 10.0 mi SE 6.9 mph - N/A   Overcast
12:45 PM 14.0 °F 3.9 °F 6.8 °F 73% 29.81 in 10.0 mi SSE 6.9 mph - N/A   Overcast
1:05 PM 14.0 °F 5.1 °F 5.0 °F 67% 29.80 in 10.0 mi SSE 5.8 mph - N/A   Overcast
1:25 PM 15.8 °F 8.6 °F 6.8 °F 68% 29.80 in 10.0 mi SE 4.6 mph - N/A   Overcast
1:45 PM 15.8 °F 4.2 °F 8.6 °F 73% 29.79 in 10.0 mi SE 9.2 mph - N/A   Overcast
2:03 PM 15.6 °F 5.9 °F 9.7 °F 77% 29.80 in 10.0 mi SE 6.9 mph - N/A   Overcast
2:14 PM 15.6 °F 7.0 °F 10.0 °F 79% 29.80 in 10.0 mi SE 5.8 mph - N/A   Overcast
2:35 PM 15.8 °F 7.2 °F 10.2 °F 79% 29.80 in 10.0 mi SSE 5.8 mph - N/A   Overcast
2:55 PM 16.2 °F - 10.6 °F 79% 29.82 in 5.0 mi Calm Calm - N/A   Overcast
3:14 PM 16.3 °F 10.8 °F 11.3 °F 81% 29.82 in 5.0 mi SE 3.5 mph - N/A Snow Light Snow
3:35 PM 16.3 °F - 11.8 °F 82% 29.83 in 5.0 mi Calm Calm - N/A Snow Light Snow
3:55 PM 16.7 °F - 12.0 °F 82% 29.84 in 7.0 mi Calm Calm - N/A   Overcast
4:14 PM 16.7 °F - 11.8 °F 81% 29.85 in 10.0 mi Calm Calm - N/A   Overcast
4:35 PM 17.1 °F - 11.8 °F 80% 29.86 in 10.0 mi Calm Calm - N/A   Overcast
4:54 PM 16.7 °F - 12.0 °F 82% 29.86 in 5.0 mi Calm Calm - N/A Snow Light Snow
5:15 PM 16.5 °F - 12.4 °F 84% 29.88 in 10.0 mi Calm Calm - N/A   Overcast
5:35 PM 16.3 °F - 12.7 °F 86% 29.89 in 10.0 mi Calm Calm - N/A   Overcast
5:54 PM 16.3 °F - 12.6 °F 85% 29.89 in 10.0 mi Calm Calm - N/A   Overcast
6:15 PM 16.2 °F - 12.6 °F 86% 29.91 in 10.0 mi Calm Calm - N/A   Overcast
6:35 PM 15.8 °F - 12.2 °F 86% 29.92 in 10.0 mi Calm Calm - N/A   Overcast
6:55 PM 15.8 °F - 12.2 °F 86% 29.93 in 10.0 mi Calm Calm - N/A   Overcast
7:14 PM 15.8 °F - 12.0 °F 85% 29.95 in 10.0 mi Calm Calm - N/A   Overcast
7:35 PM 15.8 °F - 12.0 °F 85% 29.95 in 10.0 mi Calm Calm - N/A   Overcast
7:55 PM 15.8 °F - 12.0 °F 85% 29.96 in 10.0 mi Calm Calm - N/A   Overcast
8:14 PM 16.2 °F - 11.7 °F 82% 29.96 in 10.0 mi Calm Calm - N/A   Overcast
8:35 PM 16.2 °F 9.0 °F 11.3 °F 81% 29.97 in 10.0 mi NW 4.6 mph - N/A   Overcast
8:55 PM 16.3 °F - 11.3 °F 81% 29.98 in 10.0 mi Calm Calm - N/A   Overcast
9:14 PM 16.3 °F 9.2 °F 11.3 °F 81% 29.98 in 10.0 mi NNW 4.6 mph - N/A   Overcast
9:35 PM 16.5 °F 11.0 °F 11.1 °F 79% 29.99 in 10.0 mi NNW 3.5 mph - N/A   Overcast
9:55 PM 16.7 °F 6.2 °F 10.9 °F 78% 29.99 in 10.0 mi North 8.1 mph - N/A   Overcast
10:14 PM 16.7 °F 7.2 °F 10.9 °F 78% 29.99 in 10.0 mi North 6.9 mph - N/A   Overcast
10:35 PM 16.7 °F 7.2 °F 11.3 °F 79% 30.01 in 10.0 mi North 6.9 mph - N/A   Overcast
10:55 PM 16.3 °F 5.7 °F 11.5 °F 81% 30.02 in 10.0 mi North 8.1 mph - N/A   Overcast
11:14 PM 15.6 °F 5.9 °F 10.4 °F 80% 30.03 in 10.0 mi North 6.9 mph - N/A   Overcast
11:35 PM 14.9 °F 7.5 °F 10.2 °F 82% 30.05 in 10.0 mi North 4.6 mph - N/A   Overcast
11:55 PM 13.6 °F 6.0 °F 9.5 °F 84% 30.06 in 10.0 mi North 4.6 mph - N/A   Overcast